When you browse on this site, cookies collect data to enhance your experience and personalize the content and advertising you see.
Visit our Privacy Policy to learn more. By continuing to use the site, you agree to this use of cookies and data.
  • In Czech Republic
  • List of Countries
  • For 7 days
  • Water Temperature
  • Satellite Maps
  • Weather Map
  • Weather Widgets
  • user-avatar
    Login

    Hourly Weather Fredericton

    Today, 16 June, Sunday

    Time Temperature Precipitation Wind Pressure Humidity
    00:00 +14°C° 0 mm 3 mps 755 mmHg 66%
    01:00 +14°C° 0 mm 3 mps 755 mmHg 69%
    02:00 +14°C° 0 mm 1 mps 754 mmHg 72%
    03:00 +14°C° 1 mm 2 mps 754 mmHg 81%
    04:00 +13°C° 1 mm 2 mps 754 mmHg 89%
    05:00 +13°C° 1 mm 2 mps 755 mmHg 98%
    06:00 +14°C° 0 mm 2 mps 755 mmHg 94%
    07:00 +15°C° 0 mm 2 mps 755 mmHg 91%
    08:00 +17°C° 0 mm 2 mps 755 mmHg 87%
    09:00 +19°C° 0 mm 2 mps 755 mmHg 74%
    10:00 +21°C° 0 mm 2 mps 755 mmHg 60%
    11:00 +24°C° 0 mm 3 mps 755 mmHg 47%
    12:00 +24°C° 0 mm 3 mps 755 mmHg 45%
    13:00 +25°C° 0 mm 3 mps 754 mmHg 44%
    14:00 +26°C° 0 mm 3 mps 754 mmHg 42%
    15:00 +25°C° 0 mm 3 mps 754 mmHg 46%
    16:00 +25°C° 0 mm 3 mps 754 mmHg 50%
    17:00 +25°C° 0 mm 2 mps 754 mmHg 53%
    18:00 +23°C° 0.1 mm 2 mps 754 mmHg 64%
    19:00 +20°C° 0.1 mm 2 mps 755 mmHg 75%
    20:00 +19°C° 0.1 mm 1 mps 755 mmHg 86%
    21:00 +16°C° 0 mm 1 mps 755 mmHg 87%
    22:00 +15°C° 0 mm 1 mps 755 mmHg 87%
    23:00 +14°C° 0 mm 1 mps 755 mmHg 87%

    Tomorrow, 17 June, Monday

    Time Temperature Precipitation Wind Pressure Humidity
    00:00 +14°C° 0 mm 1 mps 755 mmHg 87%
    01:00 +13°C° 0 mm 1 mps 755 mmHg 86%
    02:00 +12°C° 0 mm 1 mps 755 mmHg 85%
    03:00 +13°C° 0 mm 1 mps 755 mmHg 84%
    04:00 +13°C° 0 mm 1 mps 755 mmHg 82%
    05:00 +13°C° 0 mm 1 mps 755 mmHg 81%
    06:00 +14°C° 0 mm 2 mps 756 mmHg 75%
    07:00 +16°C° 0 mm 2 mps 756 mmHg 69%
    08:00 +17°C° 0 mm 2 mps 756 mmHg 64%
    09:00 +19°C° 0 mm 3 mps 756 mmHg 57%
    10:00 +20°C° 0 mm 3 mps 756 mmHg 51%
    11:00 +22°C° 0 mm 4 mps 756 mmHg 45%
    12:00 +22°C° 0 mm 4 mps 756 mmHg 43%
    13:00 +23°C° 0 mm 4 mps 756 mmHg 40%
    14:00 +23°C° 0 mm 4 mps 756 mmHg 38%
    15:00 +23°C° 0 mm 4 mps 756 mmHg 39%
    16:00 +23°C° 0 mm 4 mps 756 mmHg 41%
    17:00 +22°C° 0 mm 4 mps 756 mmHg 42%
    18:00 +20°C° 0 mm 3 mps 757 mmHg 51%
    19:00 +18°C° 0 mm 2 mps 757 mmHg 60%
    20:00 +16°C° 0 mm 2 mps 757 mmHg 70%
    21:00 +15°C° 0 mm 1 mps 758 mmHg 70%
    22:00 +14°C° 0 mm 1 mps 758 mmHg 71%
    23:00 +13°C° 0 mm 1 mps 758 mmHg 72%

    Day after tomorrow, 18 June, Tuesday

    Time Temperature Precipitation Wind Pressure Humidity
    00:00 +12°C° 0 mm 1 mps 758 mmHg 74%
    01:00 +12°C° 0 mm 1 mps 758 mmHg 75%
    02:00 +11°C° 0 mm 1 mps 758 mmHg 76%
    03:00 +11°C° 0 mm 1 mps 759 mmHg 77%
    04:00 +11°C° 0 mm 1 mps 759 mmHg 79%
    05:00 +11°C° 0 mm 1 mps 759 mmHg 80%
    06:00 +13°C° 0 mm 1 mps 759 mmHg 74%
    07:00 +16°C° 0 mm 1 mps 759 mmHg 68%
    08:00 +19°C° 0 mm 1 mps 759 mmHg 62%
    09:00 +21°C° 0 mm 1 mps 758 mmHg 54%
    10:00 +23°C° 0 mm 2 mps 758 mmHg 47%
    11:00 +25°C° 0 mm 2 mps 757 mmHg 40%
    12:00 +25°C° 0 mm 2 mps 757 mmHg 41%
    13:00 +25°C° 0 mm 2 mps 757 mmHg 43%
    14:00 +25°C° 0 mm 2 mps 756 mmHg 45%
    15:00 +24°C° 0 mm 2 mps 756 mmHg 50%
    16:00 +24°C° 0 mm 2 mps 756 mmHg 56%
    17:00 +23°C° 0 mm 2 mps 756 mmHg 61%
    18:00 +21°C° 0.1 mm 2 mps 756 mmHg 69%
    19:00 +19°C° 0.1 mm 2 mps 756 mmHg 77%
    20:00 +18°C° 0.1 mm 2 mps 756 mmHg 85%
    21:00 +17°C° 0 mm 2 mps 756 mmHg 88%
    22:00 +16°C° 0 mm 2 mps 756 mmHg 91%
    23:00 +15°C° 0 mm 2 mps 756 mmHg 95%

    19 June, Wednesday

    Time Temperature Precipitation Wind Pressure Humidity
    00:00 +15°C° 0 mm 2 mps 756 mmHg 95%
    01:00 +14°C° 0 mm 2 mps 756 mmHg 96%
    02:00 +14°C° 0 mm 2 mps 756 mmHg 97%
    03:00 +14°C° 0 mm 2 mps 756 mmHg 97%
    04:00 +14°C° 0 mm 2 mps 756 mmHg 97%
    05:00 +14°C° 0 mm 2 mps 756 mmHg 97%
    06:00 +14°C° 0 mm 2 mps 756 mmHg 96%
    07:00 +15°C° 0 mm 2 mps 756 mmHg 94%
    08:00 +15°C° 0 mm 2 mps 756 mmHg 93%
    09:00 +16°C° 0.2 mm 2 mps 756 mmHg 91%
    10:00 +17°C° 0.2 mm 2 mps 756 mmHg 89%
    11:00 +18°C° 0.2 mm 2 mps 755 mmHg 87%
    12:00 +19°C° 0 mm 2 mps 755 mmHg 81%
    13:00 +20°C° 0 mm 2 mps 755 mmHg 76%
    14:00 +21°C° 0 mm 2 mps 754 mmHg 70%
    15:00 +23°C° 0.1 mm 2 mps 754 mmHg 67%
    16:00 +24°C° 0.1 mm 2 mps 754 mmHg 65%
    17:00 +25°C° 0.1 mm 2 mps 753 mmHg 62%
    18:00 +23°C° 0.1 mm 2 mps 754 mmHg 71%
    19:00 +20°C° 0.1 mm 2 mps 754 mmHg 80%
    20:00 +18°C° 0.1 mm 2 mps 754 mmHg 89%
    21:00 +17°C° 0.1 mm 2 mps 754 mmHg 92%
    22:00 +15°C° 0.1 mm 2 mps 754 mmHg 95%
    23:00 +14°C° 0.1 mm 2 mps 754 mmHg 98%

    20 June, Thursday

    Time Temperature Precipitation Wind Pressure Humidity
    00:00 +14°C° 0 mm 2 mps 754 mmHg 98%
    01:00 +14°C° 0 mm 2 mps 753 mmHg 98%
    02:00 +13°C° 0 mm 2 mps 753 mmHg 99%
    03:00 +14°C° 0 mm 2 mps 753 mmHg 98%
    04:00 +14°C° 0 mm 2 mps 753 mmHg 98%
    05:00 +14°C° 0 mm 1 mps 753 mmHg 97%
    06:00 +15°C° 0.1 mm 1 mps 753 mmHg 97%
    07:00 +15°C° 0.1 mm 1 mps 753 mmHg 96%
    08:00 +15°C° 0.1 mm 1 mps 753 mmHg 95%
    09:00 +16°C° 0.1 mm 1 mps 753 mmHg 92%
    10:00 +18°C° 0.1 mm 1 mps 752 mmHg 88%
    11:00 +19°C° 0.1 mm 1 mps 752 mmHg 84%
    12:00 +21°C° 0 mm 1 mps 752 mmHg 77%
    13:00 +22°C° 0 mm 1 mps 752 mmHg 70%
    14:00 +24°C° 0 mm 2 mps 752 mmHg 63%
    15:00 +24°C° 0.1 mm 2 mps 751 mmHg 62%
    16:00 +24°C° 0.1 mm 2 mps 751 mmHg 61%
    17:00 +24°C° 0.1 mm 2 mps 751 mmHg 60%
    18:00 +23°C° 0 mm 2 mps 752 mmHg 68%
    19:00 +21°C° 0 mm 1 mps 752 mmHg 76%
    20:00 +19°C° 0 mm 1 mps 752 mmHg 84%
    21:00 +18°C° 0 mm 1 mps 752 mmHg 87%
    22:00 +15°C° 0 mm 1 mps 752 mmHg 90%
    23:00 +14°C° 0 mm 1 mps 753 mmHg 92%

    21 June, Friday

    Time Temperature Precipitation Wind Pressure Humidity
    00:00 +14°C° 0 mm 1 mps 753 mmHg 93%
    01:00 +13°C° 0 mm 1 mps 753 mmHg 94%
    02:00 +13°C° 0 mm 1 mps 753 mmHg 95%
    03:00 +13°C° 0 mm 1 mps 753 mmHg 94%
    04:00 +12°C° 0 mm 1 mps 753 mmHg 93%
    05:00 +12°C° 0 mm 1 mps 754 mmHg 92%
    06:00 +14°C° 0 mm 1 mps 754 mmHg 83%
    07:00 +16°C° 0 mm 1 mps 754 mmHg 74%
    08:00 +18°C° 0 mm 1 mps 754 mmHg 65%
    09:00 +20°C° 0 mm 1 mps 754 mmHg 59%
    10:00 +20°C° 0 mm 2 mps 754 mmHg 54%
    11:00 +23°C° 0 mm 2 mps 753 mmHg 48%
    12:00 +23°C° 0 mm 2 mps 753 mmHg 48%
    13:00 +23°C° 0 mm 2 mps 753 mmHg 47%
    14:00 +23°C° 0 mm 2 mps 753 mmHg 47%
    15:00 +22°C° 0.1 mm 1 mps 753 mmHg 55%
    16:00 +21°C° 0.1 mm 1 mps 753 mmHg 63%
    17:00 +21°C° 0.1 mm 1 mps 753 mmHg 71%
    18:00 +19°C° 0.3 mm 1 mps 753 mmHg 79%
    19:00 +18°C° 0.3 mm 1 mps 753 mmHg 87%
    20:00 +15°C° 0.3 mm 1 mps 753 mmHg 95%
    21:00 +15°C° 0.3 mm 1 mps 753 mmHg 96%
    22:00 +15°C° 0.3 mm 1 mps 753 mmHg 97%
    23:00 +14°C° 0.3 mm 2 mps 753 mmHg 98%
    Show more